STARLINK-11511, 62468

Orbit data source: Space-Track

STARLINK-11511, 62468 is a payload satellite owned by SpaceX/Seattle (US) in LEO that was launched on Tue, 31 Dec 2024 UTC via an FALCON 9 launch vehicle from the Air Force Eastern Test Range (AFETR). Payload-class satellites include a variety of spacecraft equipped with specific instruments for various scientific and technological missions. These include communications satellites like Starlink; space stations such as the ISS; scientific satellites like the Hubble; Earth observation satellites from companies like Planet Labs, Umbra, and HawkEye 360; GPS; miniature CubeSats for education and research; and military/defense satellites.

Loading next visibility...
Identifier
62468, 2024-254G
Orbit
LEO
Country
Flag of USUS
Related business
Manufacturer
SpaceX/Seattle
Mission
Operational Commercial Communications
Bus & Motor
STARLINK V2M, Unknown motor
Mass
730 kg wet, ~700 kg dry
Launch date (UTC)
2024-12-31 (8 months ago)
Launch vehicle
FALCON 9
Launch site
Air Force Eastern Test Range (AFETR)
Object type
Payload
Rocket body
Debris
Shape & HBR
Box + 2 Pan, 14.5 m
Radar Cross Section
36.964 m², Large (>1 m²)

Expand to show TLE details & history
Last TLE update: 2 days ago

TLE from 2 days ago
0 STARLINK-11511
1 62468U 24254G   25241.36715131  .00147331  00000-0  11297-2 0  9995
2 62468  43.0003 302.2586 0001737 244.1792 115.8897 15.70875684 39159
Epoch: 2025-08-29T08:48Z
TLE epoch observation values (Epoch: 2025-08-29T08:48:41.873Z)
Latitude
0.00002°
Longitude
-167.73267°
Altitude
356.675 km
Speed
7.697 km/s
True Right ascension
20h 09m 02s
True Declination
0° 00' 00"
Sunlit
Object was in full shadow at epoch
Visualization orbit readout
Latitude
Unknown
Longitude
Unknown
Altitude
Unknown
Speed
Unknown
Apparent Right ascension
Unknown
Apparent Declination
Unknown
Sunlit
N/A
Visualization observer readout
Local Sidereal Time
16:21:46
Azimuth
Unknown
Elevation
Unknown
Doppler factor
Unknown
Orbital elements
Apogee altitude
359.545 km
Perigee altitude
357.205 km
Semi-major axis
6,736.512 km
Eccentricity
0.00017
Inclination
43.0003°
RAAN
302.2586°
Arg. of periapsis
244.1792°
True anomaly
115.90761°
Mean anomaly
115.8897°
Eccentric anomaly
115.89865°
Mean motion
3.92546 °/min
Orbital period
91.71 mins
BSTAR
0.0011297
Loading maneuver chart data...
Computing Atmospheric mass density...
Loading historical data...
Loading historical data...
Loading historical data...
Loading historical data...
Loading historical data...
Loading historical data...
Loading historical data...

Documentation

Showing up to 5 results
|